Regional Weather Roundup
Issued by NWS

Home | Current Version | Previous Version | Text Only | Print | Product List | Glossary Off
Versions: 1 2 3 4 5 6 7 8 9 10 11 12 13 14 15 16 17 18 19 20 21 22 23 24 25 26 27 28 29 30 31 32 33 34 35 36 37 38 39 40 41 42 43 44 45 46 47 48 49 50

000
ASUS43 KFSD 281310
RWRSD

WEATHER ROUNDUP FOR SOUTH DAKOTA
NATIONAL WEATHER SERVICE SIOUX FALLS SD
800 AM CDT FRI APR 28 2017

NOTE: "FAIR" INDICATES FEW OR NO CLOUDS BELOW 12,000 FEET WITH NO
SIGNIFICANT WEATHER AND/OR OBSTRUCTIONS TO VISIBILITY.


SDZ001>005-009-010-012>017-281400-
NORTHWEST AND NORTH CENTRAL SOUTH DAKOTA

CITY           SKY/WX    TMP DP  RH WIND       PRES   REMARKS
BUFFALO          N/A     33  26  75 NE7       29.83R WCI  27
FAITH            N/A     31  28  89 NE8       29.89R WCI  23
MOBRIDGE       SUNNY     36  26  67 E9        29.92R
$$

SDZ012>016-024>037-041>051-057-063-072>074-281400-
SOUTHWEST AND SOUTH CENTRAL SOUTH DAKOTA

CITY           SKY/WX    TMP DP  RH WIND       PRES   REMARKS
RAPID CTY ARPT CLOUDY    35  30  82 N13       29.83R WCI  26
PIERRE         MOSUNNY   31  26  82 NE13      29.89R WCI  21
CUSTER         SNOW      29  25  85 E21G28    29.74R VSB 1/2 WCI  16
ELLSWORTH AFB  CLOUDY    35  32  88 NE10      29.84R WCI  27
PHILIP         PTSUNNY   34  31  88 E8        29.87R WCI  27
PINE RIDGE     LGT SNOW  34  33  96 E12       29.76R FOG     WCI  25
SPEARFISH      CLOUDY    34  32  93 E12       29.83R WCI  25
WINNER         FAIR      36  30  79 E5        29.85R
$$

SDZ004>011-016>023-039-040-281400-
NORTHEAST SOUTH DAKOTA

CITY           SKY/WX    TMP DP  RH WIND       PRES   REMARKS
ABERDEEN       SUNNY     32  27  81 N5        29.95R WCI  27
WATERTOWN      SUNNY     30  25  81 N7        29.91R WCI  23
BROOKINGS      CLOUDY    33  28  81 N9        29.90R WCI  25
SISSETON         N/A     34  28  79 N8        29.93R WCI  27
$$

SDZ017-020-022-023-036>040-048>070-281400-
SOUTHEAST SOUTH DAKOTA

CITY           SKY/WX    TMP DP  RH WIND       PRES   REMARKS
SIOUX FALLS    CLOUDY    31  28  89 CALM      29.90R
HURON          CLOUDY    35  31  85 NE7       29.91R WCI  29
CHAMBERLAIN    CLOUDY    34  31  88 N6        29.89R WCI  29
MITCHELL       PTSUNNY   30  27  88 N5        29.92R WCI  25
YANKTON        CLOUDY    34  28  80 NE7       29.87R WCI  28
$$

ABBREVIATIONS USED IN REMARKS
   TC - TEMPERATURE IN CELSIUS
  WCI - WIND CHILL INDEX
   HX - HEAT INDEX
  VSB - VISIBILITY





USA.gov is the U.S. government's official web portal to all federal, state and local government web resources and services.